Regional Weather Roundup
Issued by NWS

Home | Current Version | Previous Version | Graphics & Text | Print | Product List | Glossary On
Versions: 1 2 3 4 5 6 7 8 9 10 11 12 13 14 15 16 17 18 19 20 21 22 23 24 25 26 27 28 29 30 31 32 33 34 35 36 37 38 39 40 41 42 43 44 45 46 47 48 49 50
866
ASUS43 KBIS 281702
RWRND

NORTH DAKOTA REGIONAL WEATHER ROUNDUP
NATIONAL WEATHER SERVICE BISMARCK ND
1200 PM CDT SAT MAY 28 2016

NOTE: "FAIR" INDICATES FEW OR NO CLOUDS BELOW 12,000 FEET WITH NO
SIGNIFICANT WEATHER AND/OR OBSTRUCTIONS TO VISIBILITY.


NDZ001>003-009>011-017-281800-
NORTHWEST NORTH DAKOTA

CITY           SKY/WX    TMP DP  RH WIND       PRES   REMARKS
WILLISTON      CLOUDY    64  53  67 NE7       29.89F
MINOT          CLOUDY    63  53  70 N5        29.90S
$$

NDZ018>021-031>035-040>046-281800-
SOUTHWEST NORTH DAKOTA

CITY           SKY/WX    TMP DP  RH WIND       PRES   REMARKS
BISMARCK       CLOUDY    66  55  67 E5        29.88S
DICKINSON      MOSUNNY   66  47  50 CALM      29.86F
GARRISON         N/A     63  54  72 E8        29.90R
HETTINGER ARPT PTSUNNY   67  46  47 CALM      29.89S
$$

NDZ004>008-012>016-024-026-027-054-281800-
NORTHEAST NORTH DAKOTA

CITY           SKY/WX    TMP DP  RH WIND       PRES   REMARKS
GRAND FORKS    CLOUDY    72  55  55 NE13      29.83S
GRND FRKS AFB  PTSUNNY   70  54  56 E8        29.84S
DEVILS LAKE    CLOUDY    61  57  87 N8        29.89S
$$

NDZ022-023-025-028>030-036>039-047>053-281800-
SOUTHEAST NORTH DAKOTA

CITY           SKY/WX    TMP DP  RH WIND       PRES   REMARKS
FARGO          CLOUDY    70  56  61 NE13      29.80F
JAMESTOWN      CLOUDY    63  57  81 N9        29.86S
$$





USA.gov is the U.S. government's official web portal to all federal, state and local government web resources and services.